Location: Martin
(32.0982°N, 93.2193°W)
Time: 17:27:32
(UTC+00:00)

ARIANE 6 FM1 Upper Stage - Pass Details

Date: 23 September 2024
Orbit: 563 x 595 km, 62.0° (Epoch: 12 October)

Event Time Altitude Azimuth Distance (km) Brightness Sun altitude
Exits shadow 10:57:24 24° 258° (WSW) 1,239 3.8 -14.5°
Maximum altitude 10:57:56 25° 246° (WSW) 1,218 3.8 -14.4°
Drops below altitude 10° 11:01:30 10° 191° (S) 1,919 5.2 -13.6°
Sets 11:04:02 0° 178° (S) 2,814 6.2 -13.1°
